Главная страница
METAR-TAF:

METAR-TAF

Аэропорты :

Grant County Airport

Петербург, Западная Виргиния, США

широта: 38-59N, долгота: 079-08W, высота над уровнем моря: 293 м

Текущие метеонаблюдения

Эта сводка был подготовлена 32 минут назад, в 23:15 UTC
Штиль
Температура 2°C
Влажность 87%
Давление 1021 hPa
Видимость: 16.1 км
ясное небо

METAR: KW99 182315Z AUTO 00000KT 10SM CLR 02/00 A3016 RMK AO2 T00200004

Время: 18:47 (23:47 UTC)


TAF: отсутствует

Метеонаблюдения и прогнозы для более 4000 аэропортов (сводки METAR и TAF).

Имеющиеся станции представлены на карте желтыми и красными точками.

Чтобы увидеть название станции, наведите на нее мышь.

Затем щелкните, чтобы увидеть метеонаблюдения и метеопрогнозы.

Управление картой: чтобы увеличить масштаб, щелкните зеленые кнопки с черным крестиком; чтобы уменьшить масштаб, щелкните зеленую кнопку с тире; для просмотра соседних карт щелкайте зеленые стрелки.


METAR-TAF: